Flag for United Kingdom Weather past 2 weeks in Liverpool, England, United Kingdom

Now
45 °F

Broken clouds.


Feels Like: 40 °F
Forecast: 45 / 49 °F
Wind: 8 mph from Northwest

Location: Liverpool Airport

Current Time: Apr 25, 2015 at 7:14:12 PM

Latest Report: Apr 25, 2015 at 6:20 PM


Visibility: N/A

Pressure: 29.71 "Hg

Humidity: 71%

Dew point: 36 °F

Location of LiverpoolLocation

Historic Weather in Liverpool — Graph

°F

Liverpool temperature yesterday

Maximum temperature yesterday: 57 °F (at 11:50 AM)
Minimum temperature yesterday: 45 °F (at 5:20 AM)
Average temperature yesterday: 53 °F

Past Weeks' High & Low Weather Summary

 TemperatureHumidityPressure
High64 °F (Apr 10, 5:50 PM)100% (Apr 13, 3:50 AM)30.60 "Hg (Apr 13, 3:50 AM)
Low36 °F (Apr 13, 3:20 AM)45% (Apr 18, 4:20 PM)29.56 "Hg (Apr 25, 5:20 AM)
Average50 °F75%30.18 "Hg
* Reported Apr 10 5:20 PM — Apr 25 5:50 PM, Liverpool, Weather by CustomWeather, © 2015

Note: Actual official high and low records may vary slightly from our data, if they occured in-between our weather recording intervals... More about our weather records

Advertising

Liverpool weather history for previous 24 hours

 ConditionsComfort  
Time TempWeatherWind HumidityBarometerVisibility
5:50 PM
Sat, Apr 25
43 °FBroken clouds.9 mph76%29.71 "HgN/A
5:20 PM43 °FPartly sunny.14 mph76%29.71 "HgN/A
4:50 PM45 °FPartly sunny.15 mph71%29.68 "HgN/A
4:20 PM45 °FPartly sunny.15 mph71%29.68 "HgN/A
3:50 PM46 °FPartly sunny.16 mph71%29.68 "HgN/A
3:20 PM46 °FPartly sunny.16 mph76%29.68 "HgN/A
2:50 PM48 °FBroken clouds.14 mph76%29.65 "HgN/A
2:20 PM48 °FBroken clouds.15 mph76%29.65 "HgN/A
1:50 PM48 °FScattered showers. Broken clouds.16 mph87%29.62 "HgN/A
1:20 PM50 °FSprinkles. Broken clouds.15 mph94%29.62 "HgN/A
12:50 PM50 °FSprinkles. Broken clouds.16 mph94%29.59 "HgN/A
12:20 PM57 °FScattered showers. Partly sunny.13 mph82%29.56 "HgN/A
11:50 AM55 °FScattered showers. Partly sunny.12 mph88%29.59 "HgN/A
11:20 AM57 °FScattered showers. Partly sunny.16 mph82%29.56 "HgN/A
10:50 AM57 °FScattered showers. Scattered clouds.15 mph82%29.59 "HgN/A
10:20 AM54 °FScattered showers. Partly sunny.13 mph88%29.59 "HgN/A
9:50 AM55 °FScattered showers. Partly sunny.13 mph77%29.59 "HgN/A
9:20 AM55 °FScattered clouds.14 mph77%29.59 "HgN/A
8:50 AM54 °FBroken clouds.15 mph82%29.59 "HgN/A
8:20 AM54 °FBroken clouds.12 mph82%29.56 "HgN/A
7:50 AM54 °FScattered clouds.10 mph82%29.56 "HgN/A
7:20 AM52 °FScattered showers. Scattered clouds.10 mph88%29.56 "HgN/A
6:50 AM52 °FScattered clouds.10 mph88%29.56 "HgN/A
6:20 AM54 °FPassing clouds.10 mph82%29.56 "HgN/A
5:50 AM52 °FPassing clouds.13 mph88%29.56 "HgN/A
5:20 AM52 °FPassing clouds.12 mph88%29.56 "HgN/A
4:20 AM52 °FPassing clouds.14 mph88%29.59 "HgN/A
3:50 AM52 °FPassing clouds.15 mph88%29.59 "HgN/A
3:20 AM54 °FPassing clouds.16 mph82%29.59 "HgN/A
2:50 AM54 °FPassing clouds.13 mph82%29.59 "HgN/A
2:20 AM52 °FPassing clouds.15 mph82%29.59 "HgN/A
1:50 AM54 °FPassing clouds.17 mph77%29.62 "HgN/A
1:20 AM54 °FPassing clouds.15 mph77%29.62 "HgN/A
12:20 AM54 °FPassing clouds.15 mph82%29.62 "HgN/A
11:50 PM
Fri, Apr 24
54 °FPassing clouds.10 mph88%29.65 "HgN/A
11:20 PM54 °FPassing clouds.12 mph88%29.65 "HgN/A
10:50 PM54 °FPassing clouds.13 mph82%29.65 "HgN/A
10:20 PM54 °FPassing clouds.10 mph88%29.65 "HgN/A
9:50 PM55 °FPassing clouds.14 mph82%29.65 "HgN/A
9:20 PM55 °FPartly sunny.14 mph88%29.65 "HgN/A
8:50 PM55 °FPartly sunny.14 mph82%29.65 "HgN/A
8:20 PM55 °FPartly sunny.13 mph82%29.68 "HgN/A
7:50 PM55 °FPartly sunny.14 mph82%29.68 "HgN/A
7:20 PM57 °FPartly sunny.9 mph77%29.68 "HgN/A
Weather by CustomWeather, © 2015

See weather overviewHow to use our weather pages